Showing default

KUIPER-00136, 65962

Orbit data source: Space-Track

KUIPER-00136, 65962 is a payload satellite owned by Kuiper Systems (US) in LEO that was launched on Tue, 14 Oct 2025 UTC via an FALCON 9 launch vehicle from the Air Force Eastern Test Range (AFETR). Payload-class satellites include a variety of spacecraft equipped with specific instruments for various scientific and technological missions. These include communications satellites like Starlink; space stations such as the ISS; scientific satellites like the Hubble; Earth observation satellites from companies like Planet Labs, Umbra, and HawkEye 360; GPS; miniature CubeSats for education and research; and military/defense satellites.

Loading next visibility...
Identifier
65962, 2025-228R
Orbit
LEO
Country
Flag of USUS
Related business
Manufacturer
Kuiper Systems
Mission
Operational Commercial Communications
Bus & Motor
KUIPER, Unknown motor
Mass
~490 kg wet, ~490 kg dry
Launch date (UTC)
2025-10-14 (8 months ago)
Launch vehicle
FALCON 9
Launch site
Air Force Eastern Test Range (AFETR)
Object type
Payload
Rocket body
Debris
Shape & HBR
Box + 2 Pan, 3.4 m
Radar Cross Section
2.326 m², Large (>1 m²)

Expand to show TLE details & history
Last TLE update: 1 day ago

TLE from 1 day ago
0 KUIPER-00136
1 65962U 25228R   26170.61134316  .00002264  00000-0  32601-3 0  9997
2 65962  51.8999 257.4532 0000495  83.6062 276.4957 14.79921645 38494
Epoch: 2026-06-19T14:40Z
TLE epoch observation values (Epoch: 2026-06-19T14:40:20.049Z)
Latitude
0.00003°
Longitude
129.53185°
Altitude
630.279 km
Speed
7.545 km/s
True Right ascension
17h 09m 48s
True Declination
0° 00' 00"
Sunlit
Object was in full shadow at epoch
Visualization orbit readout
Latitude
Unknown
Longitude
Unknown
Altitude
Unknown
Speed
Unknown
Apparent Right ascension
Unknown
Apparent Declination
Unknown
Sunlit
N/A
Visualization observer readout
Local Sidereal Time
08:32:31
Azimuth
Unknown
Elevation
Unknown
Doppler factor
Unknown
Orbital elements
Apogee altitude
630.37 km
Perigee altitude
629.676 km
Semi-major axis
7,008.16 km
Eccentricity
0.00005
Inclination
51.8999°
RAAN
257.4532°
Arg. of periapsis
83.6062°
True anomaly
276.49006°
Mean anomaly
276.4957°
Eccentric anomaly
276.49288°
Mean motion
3.69945 °/min
Orbital period
97.31 mins
BSTAR
0.00032601
Loading maneuver chart data...
Computing Atmospheric mass density...
Loading historical data...
Loading historical data...
Loading historical data...
Loading historical data...
Loading historical data...
Loading historical data...
Loading historical data...

Documentation

Showing up to 5 results
|